Anchorage Merrill, AK

8:52 AM AKDT on August 21, 2017 (GMT -0800)
Merrill

Weather History for PAMR - June, 2014

Change the Weather History Date:

Wednesday, June 11, 2014

  Actual Average Record
Temperature  
Mean Temperature 50 °F -  
Max Temperature 59 °F 62 °F 75 °F (2013)
Min Temperature 43 °F 46 °F 43 °F (2000)
Degree Days  
Heating Degree Days 15    
Moisture  
Dew Point 37 °F    
Average Humidity 57    
Maximum Humidity 76    
Minimum Humidity 42    
Precipitation  
Precipitation 0.01 in - - ()
Sea Level Pressure  
Sea Level Pressure 30.13 in    
Wind  
Wind Speed 5 mph (West)    
Max Wind Speed 13 mph    
Max Gust Speed -    
Visibility 10 miles    
Events      
Averages and records for this station are not official NWS values.
T = Trace of Precipitation, MM = Missing Value Source: NWS Daily Summary

Daily Weather History Graph

Daily Weather History Graph

Search for Another Location

Airport or City:

Trip Planner

Search our weather history database for the weather conditions in past years. The results will help you decide how hot, cold, wet, or windy it might be!

Date:

Astronomy

Jun. 11, 2014 Rise Set
Actual Time 4:23 AM AKDT 11:35 PM AKDT
Civil Twilight 2:31 AM AKDT 1:26 AM AKDT
Nautical Twilight Sun does not set Sun does not set
Astronomical Twilight Sun does not set Sun does not set
Moon 9:37 PM AKDT (6/11) 4:07 AM AKDT (6/11)
Length of Visible Light 22h 55m
Length of Day
19h 12m
Waxing Gibbous, 98% of the Moon is Illuminated
Jun 11
Waxing Gibbous
Jun 12
Full
Jun 19
Last Quarter
Jun 27
New
Jul 5
First Quarter

Hourly Weather History & Observations

Time (AKDT) Temp. Windchill Dew Point Humidity Pressure Visibility Wind Dir Wind Speed Gust Speed Precip Events Conditions
12:53 AM 48.9 °F - 37.0 °F 64% 30.12 in 10.0 mi South 4.6 mph - N/A   Mostly Cloudy
1:53 AM 48.0 °F - 34.0 °F 58% 30.14 in 10.0 mi South 9.2 mph - 0.01 in   Mostly Cloudy
2:53 AM 46.0 °F - 35.1 °F 66% 30.14 in 10.0 mi Calm Calm - N/A   Mostly Cloudy
3:53 AM 44.1 °F 41.5 °F 37.0 °F 76% 30.14 in 10.0 mi East 4.6 mph - N/A   Mostly Cloudy
4:53 AM 43.0 °F - 36.0 °F 76% 30.14 in 10.0 mi Calm Calm - N/A   Mostly Cloudy
5:53 AM 44.1 °F 41.5 °F 36.0 °F 73% 30.14 in 10.0 mi East 4.6 mph - N/A   Mostly Cloudy
6:53 AM 45.0 °F 42.6 °F 37.9 °F 76% 30.15 in 10.0 mi East 4.6 mph - N/A   Mostly Cloudy
7:53 AM 48.0 °F - 37.9 °F 68% 30.15 in 10.0 mi Calm Calm - N/A   Clear
8:53 AM 52.0 °F - 33.1 °F 49% 30.15 in 10.0 mi SSW 5.8 mph - N/A   Scattered Clouds
9:53 AM 52.0 °F - 33.1 °F 49% 30.16 in 10.0 mi SSW 9.2 mph - N/A   Clear
10:53 AM 54.0 °F - 33.1 °F 45% 30.15 in 10.0 mi Variable 4.6 mph - N/A   Scattered Clouds
11:53 AM 55.0 °F - 34.0 °F 45% 30.15 in 10.0 mi SW 6.9 mph - N/A   Overcast
12:53 PM 55.9 °F - 34.0 °F 44% 30.14 in 10.0 mi Variable 6.9 mph - N/A   Scattered Clouds
1:53 PM 57.0 °F - 35.1 °F 44% 30.13 in 10.0 mi NNW 6.9 mph - N/A   Overcast
2:53 PM 55.9 °F - 35.1 °F 45% 30.12 in 10.0 mi WNW 10.4 mph - N/A   Mostly Cloudy
3:53 PM 55.9 °F - 36.0 °F 47% 30.12 in 10.0 mi West 11.5 mph - N/A   Mostly Cloudy
4:53 PM 57.9 °F - 35.1 °F 42% 30.12 in 10.0 mi West 11.5 mph - N/A   Mostly Cloudy
5:53 PM 55.9 °F - 39.0 °F 53% 30.12 in 10.0 mi WNW 12.7 mph - N/A   Scattered Clouds
6:53 PM 55.9 °F - 39.9 °F 55% 30.11 in 10.0 mi NW 8.1 mph - N/A   Mostly Cloudy
7:53 PM 53.1 °F - 39.9 °F 61% 30.11 in 10.0 mi West 5.8 mph - N/A   Mostly Cloudy
8:53 PM 54.0 °F - 39.9 °F 59% 30.10 in 10.0 mi WNW 3.5 mph - N/A   Scattered Clouds
9:53 PM 53.1 °F - 36.0 °F 52% 30.10 in 10.0 mi West 3.5 mph - N/A   Mostly Cloudy
9:55 PM 53.6 °F - 37.4 °F 54% 30.09 in 10.0 mi Calm Calm - N/A   Mostly Cloudy
10:53 PM 52.0 °F - 41.0 °F 66% 30.10 in 10.0 mi NW 4.6 mph - N/A   Overcast
11:53 PM 52.0 °F - 41.0 °F 66% 30.10 in 10.0 mi WNW 4.6 mph - N/A   Mostly Cloudy